Regional Weather Roundup
Issued by NWS

Home | Current Version | Previous Version | Text Only | Print | Product List | Glossary Off
Versions: 1 2 3 4 5 6 7 8 9 10 11 12 13 14 15 16 17 18 19 20 21 22 23 24 25 26 27 28 29 30 31 32 33 34 35 36 37 38 39 40 41 42 43 44 45 46 47 48 49 50

000
ASUS43 KMPX 280210
RWRMN
WEATHER ROUNDUP FOR MINNESOTA
NATIONAL WEATHER SERVICE TWIN CITIES/CHANHASSEN MN
800 PM CST THU NOV 27 2014


NOTE: "FAIR" INDICATES FEW OR NO CLOUDS BELOW 12,000 FEET WITH NO
SIGNIFICANT WEATHER AND/OR OBSTRUCTIONS TO VISIBILITY. N/A MEANS
CURRENT SKY AND/OR WEATHER CONDITIONS ARE NOT AVAILABLE.

MNZ060>063-068>070-280300-
   Twin Cities Metro

CITY           SKY/WX    TMP DP  RH WIND       PRES   REMARKS
TWIN CITIES    MOCLDY     6  -4  63 S7        30.34F WCI  -6
ST PAUL        PTCLDY     7  -1  70 S7        30.36F WCI  -5
CRYSTAL        CLOUDY     9  -1  64 S7        30.32F WCI  -2
BLAINE         MOCLDY    10   1  67 S7        30.31F WCI   0
LAKEVILLE      PTCLDY     1  -4  78 S3        30.32F
EDEN PRAIRIE   MOCLDY     6  -3  66 S6        30.32F WCI  -4
SOUTH ST PAUL  CLOUDY     8  -2  65 S5        30.34F WCI  -1
LAKE ELMO      FAIR       9   1  72 S6        30.33F WCI  -1
$$
MNZ001>005-007-008-013>017-022>024-027-028-280300-
   Northwest Minnesota

CITY           SKY/WX    TMP DP  RH WIND       PRES   REMARKS
BEMIDJI        PTCLDY     5  -3  69 SE5       30.20S WCI  -4
HALLOCK        PTCLDY     7  -2  66 S16       30.20F WCI -11
ROSEAU         FAIR       5  -2  72 S6        30.21F WCI  -6
WARROAD        PTCLDY     3  -2  78 S6        30.21F WCI  -8
THIEF RVR FALL CLOUDY     5  -2  72 SE6       30.20F WCI  -6
CROOKSTON      LGT SNOW   7   1  78 S7        30.23F WCI  -5
FOSSTON        CLOUDY     7  -2  66 CALM      30.20F
DETROIT LAKES  PTCLDY    10   1  67 S9        30.19F WCI  -2
MOORHEAD       FLURRIES   9   1  72 SE10      30.22F WCI  -6
PARK RAPIDS    CLOUDY     6  -5  60 S9        30.19F WCI  -8
MAHNOMEN       CLOUDY     9  -1  65 S8        30.20S WCI  -4
$$
MNZ006-009>011-018-025>026-280300-
   North Central Minnesota

CITY           SKY/WX    TMP DP  RH WIND       PRES   REMARKS
BAUDETTE       MOCLDY     1  -7  68 S3        30.22F
FLAG ISLAND    PTCLDY     3  -4  72 S10       30.21F WCI -12
INTL FALLS     PTCLDY    -3  -9  75 SE5       30.24F WCI -13
WASKISH        CLOUDY     3  -2  78 CALM      30.22F
BIG FORK       PTCLDY     3  -6  66 SE3       30.23F
LONGVILLE      CLOUDY     7  -4  61 S6        30.23F WCI  -3
GRAND RAPIDS   CLOUDY     3  -4  72 SE6       30.22F WCI  -8
CRANE LAKE     PTCLDY    -8  -9  92 CALM      30.28F
ORR            PTCLDY    -2  -9  71 CALM      30.21F
COOK           CLEAR     -6  -9  84 CALM      30.25F
WALKER         CLOUDY     6  -5  61 S6        30.21S WCI  -5
$$
MNZ012-019>021-037-280300-
   Northeast Minnesota

CITY           SKY/WX    TMP DP  RH WIND       PRES   REMARKS
DULUTH         FAIR       2  -6  69 SW5       30.26F WCI  -8
ELY            PTCLDY    -9 -13  84 CALM      30.25S
HIBBING        PTCLDY     1  -6  72 CALM      30.24F
EVELETH        PTCLDY    -2  -6  84 CALM      30.26F
DULUTH HARBOR  PTCLDY     9  -2  61 CALM      30.35F
TWO HARBORS    PTCLDY     3  -6  66 NW3       30.27F
SILVER BAY     PTCLDY     1  -6  71 CALM      30.27F
GRAND MARAIS     N/A      6  -5  60 NW7       30.33F WCI  -6
G MARAIS ARPRT PTCLDY    -9 -17  70 CALM      30.20F
$$
MNZ029>031-032-039>041-046>048-054>057-064-280300-
   West Central Minnesota

CITY           SKY/WX    TMP DP  RH WIND       PRES   REMARKS
FERGUS FALLS   FLURRIES   7  -6  56 SE13      30.25S WCI  -9
WHEATON        LGT SNOW   5   0  78 SE15      30.22F WCI -13
MORRIS         CLOUDY     7   0  72 SE20      30.20F WCI -13
ALEXANDRIA     CLOUDY     6  -4  63 S13       30.21F WCI -10
ELBOW LAKE     LGT SNOW   5  -1  73 SE15G22   30.19F WCI -13
WADENA         CLOUDY     5  -4  66 SE8       30.21F WCI  -8
GLENWOOD       PTCLDY     5  -4  66 SE10      30.23F WCI -10
APPLETON       FLURRIES   9  -2  61 SE10      30.23F WCI  -6
BENSON         FLURRIES   5  -2  72 S12       30.23F WCI -11
ORTONVILLE     LGT SNOW   5   0  78 SE13      30.19F WCI -12
MADISON        LGT SNOW  10   5  79 SE14      30.23F WCI  -5
WILLMAR        MOCLDY     7  -2  66 SE12      30.27F WCI  -9
$$
MNZ033>034-036-042>043-049>051-058-059-280300-
   Central Minnesota

CITY           SKY/WX    TMP DP  RH WIND       PRES   REMARKS
ST CLOUD       CLOUDY     7  -3  64 S8        30.28F WCI  -6
SAUK CENTRE    CLOUDY     5  -2  73 SE12      30.25S WCI -10
PAYNESVILLE    CLOUDY     3  -5  68 E8        30.27F WCI -10
AITKIN         CLEAR      9   0  66 CALM      30.24F
PINE RIVER     CLOUDY     5  -4  66 S8        30.26F WCI  -8
BRAINERD       PTCLDY     3  -5  69 SE6       30.25F WCI  -8
STAPLES        CLOUDY     3  -6  66 S9        30.23F WCI -11
LONG PRAIRIE   CLOUDY     5  -2  72 SE9       30.24F WCI  -9
LITTLE FALLS   PTCLDY     7  -4  61 SE7       30.27F WCI  -5
LITCHFIELD     CLOUDY     5  -2  72 SE7       30.28F WCI  -7
BUFFALO        CLOUDY     6  -3  65 SE7       30.31F WCI  -5
MAPLE LAKE     CLOUDY     7  -1  71 SE7       30.30F WCI  -5
$$
MNZ037-044-045-052-053-280300-
   East Central Minnesota

CITY           SKY/WX    TMP DP  RH WIND       PRES   REMARKS
PRINCETON      CLOUDY     9  -2  61 CALM      30.29F
MORA             N/A    N/A N/A N/A MISG        N/A
CAMBRIDGE      PTCLDY    10  -2  56 S3        30.29F
RUSH CITY      CLEAR      6  -2  67 CALM      30.32F
MOOSE LAKE     FAIR       7  -4  61 S5        30.28F WCI  -2
HINCKLEY       FAIR       7   0  72 CALM      30.31F
CLOQUET        MOCLDY     3  -6  66 CALM      30.26F
MCGREGOR       PTCLDY     9  -2  61 S7        30.26F WCI  -3
$$
MNZ071>073-080-081-089-090-097-098-280300-
   Southwest Minnesota

CITY           SKY/WX    TMP DP  RH WIND       PRES   REMARKS
MONTEVIDEO     LGT SNOW   5  -2  72 S13       30.25F WCI -12
GRANITE FALLS  FLURRIES   5  -2  74 SE12      30.27F WCI -11
CANBY          LGT SNOW   9   6  85 SE10      30.20F WCI  -5
MARSHALL       CLOUDY    10   1  67 SE13      30.21F WCI  -5
REDWOOD FALLS  CLOUDY     4  -3  73 SE13      30.28F WCI -13
OLIVIA         PTCLDY     7   0  72 SE13      30.27F WCI  -9
PIPESTONE      CLOUDY    10   3  72 S9        30.16F WCI  -2
WINDOM         CLOUDY     5  -2  72 SE14      30.23F WCI -12
WORTHINGTON    CLOUDY     9   0  66 S9        30.22F WCI  -5
JACKSON        CLOUDY     7   0  72 SE12      30.24F WCI  -9
TRACY          CLOUDY    10   2  69 S10       30.22F WCI  -4
SLAYTON        CLOUDY    10   2  71 SE14      30.20F WCI  -7
$$
MNZ065>067-074>077-082>085-091>093-280300-
   South Central Minnesota

CITY           SKY/WX    TMP DP  RH WIND       PRES   REMARKS
MANKATO        CLOUDY     1  -8  66 SE8       30.30F WCI -12
NEW ULM        CLOUDY     1  -4  78 SE9       30.29F WCI -14
ST JAMES       CLOUDY     3  -2  78 SE15      30.29F WCI -15
FAIRMONT       CLOUDY     3  -2  78 SE12      30.27F WCI -13
GLENCOE        MOCLDY     6  -1  73 SE5       30.30F WCI  -3
FARIBAULT      CLOUDY     3  -2  78 SE5       30.31F WCI  -6
OWATONNA       MOCLDY     3  -4  72 SE9       30.30F WCI -11
WASECA         CLOUDY     3  -8  60 SE7       30.32F WCI  -9
ALBERT LEA     MOCLDY     5  -2  72 S8        30.30F WCI  -8
$$
MNZ078>079-086>088-094>096-280300-
   Southeast Minnesota

CITY           SKY/WX    TMP DP  RH WIND       PRES   REMARKS
ROCHESTER      MOCLDY     2  -4  76 S5        30.32F WCI  -8
RED WING       MOCLDY     9   0  66 CALM      30.35F
STANTON        PTCLDY     6  -3  67 S5        30.32F WCI  -3
DODGE CENTER   MOCLDY     3  -2  78 S6        30.30F WCI  -8
WINONA         MOCLDY    10   1  67 CALM      30.40F
AUSTIN         MOCLDY     1  -4  78 S3        30.32F
PRESTON        PTCLDY     3  -3  76 CALM      30.34F
$$
ABBREVIATIONS USED IN REMARKS
   TC - TEMPERATURES IN CELSIUS
  WCI - WIND CHILL INDEX
   HX - HEAT INDEX
  VSB - VISIBILITY
$$



USA.gov is the U.S. government's official web portal to all federal, state and local government web resources and services.